Time,TemperatureF,DewpointF,PressureIn,WindDirection,WindDirectionDegrees,WindSpeedMPH,WindSpeedGustMPH,Humidity,HourlyPrecipIn,Conditions,Clouds,dailyrainin,SoftwareType,DateUTC
2013-11-25 00:00:00,19.0,18.0,-100.00,NNE,16,10.0,19.0,96,-99.99,,,-99.99,,2013-11-25 07:00:00,
2013-11-25 00:52:00,19.0,18.0,-100.00,NNE,16,10.0,19.0,96,-99.99,,,-99.99,,2013-11-25 07:52:00,
2013-11-25 01:00:00,19.0,18.0,-100.00,NNE,21,9.0,21.0,96,-99.99,,,-99.99,,2013-11-25 08:00:00,
2013-11-25 01:52:00,19.0,18.0,-100.00,NNE,21,9.0,21.0,96,-99.99,,,-99.99,,2013-11-25 08:52:00,
2013-11-25 02:00:00,19.0,18.0,-100.00,NNE,18,10.0,24.0,94,-99.99,,,-99.99,,2013-11-25 09:00:00,
2013-11-25 02:53:00,19.0,18.0,-100.00,NNE,18,10.0,24.0,94,-99.99,,,-99.99,,2013-11-25 09:53:00,
2013-11-25 03:00:00,21.0,17.0,-100.00,North,1,14.0,33.0,83,-99.99,,,-99.99,,2013-11-25 10:00:00,
2013-11-25 03:53:00,21.0,17.0,-100.00,North,1,14.0,33.0,83,-99.99,,,-99.99,,2013-11-25 10:53:00,
2013-11-25 04:00:00,21.0,14.0,-100.00,NNE,12,9.0,23.0,74,-99.99,,,-99.99,,2013-11-25 11:00:00,
2013-11-25 04:52:00,21.0,14.0,-100.00,NNE,12,9.0,23.0,74,-99.99,,,-99.99,,2013-11-25 11:52:00,
2013-11-25 05:00:00,18.0,14.0,-100.00,SW,217,4.0,10.0,85,-99.99,,,-99.99,,2013-11-25 12:00:00,
2013-11-25 05:52:00,18.0,14.0,-100.00,SW,217,4.0,10.0,85,-99.99,,,-99.99,,2013-11-25 12:52:00,
2013-11-25 06:00:00,16.0,14.0,-100.00,WSW,240,3.0,7.0,90,-99.99,,,-99.99,,2013-11-25 13:00:00,
2013-11-25 06:52:00,16.0,14.0,-100.00,WSW,240,3.0,7.0,90,-99.99,,,-99.99,,2013-11-25 13:52:00,
2013-11-25 07:00:00,17.0,13.0,-100.00,WSW,247,3.0,6.0,87,-99.99,,,-99.99,,2013-11-25 14:00:00,
2013-11-25 07:52:00,17.0,13.0,-100.00,WSW,247,3.0,6.0,87,-99.99,,,-99.99,,2013-11-25 14:52:00,
2013-11-25 08:00:00,20.0,13.0,-100.00,NNW,334,4.0,9.0,75,-99.99,,,-99.99,,2013-11-25 15:00:00,
2013-11-25 08:54:00,20.0,13.0,-100.00,NNW,334,4.0,9.0,75,-99.99,,,-99.99,,2013-11-25 15:54:00,
2013-11-25 09:00:00,22.0,14.0,-100.00,NE,43,6.0,10.0,71,-99.99,,,-99.99,,2013-11-25 16:00:00,
2013-11-25 09:52:00,22.0,14.0,-100.00,NE,43,6.0,10.0,71,-99.99,,,-99.99,,2013-11-25 16:52:00,
2013-11-25 10:00:00,25.0,16.0,-100.00,ENE,60,4.0,10.0,68,-99.99,,,-99.99,,2013-11-25 17:00:00,
2013-11-25 10:52:00,25.0,16.0,-100.00,ENE,60,4.0,10.0,68,-99.99,,,-99.99,,2013-11-25 17:52:00,
2013-11-25 11:00:00,27.0,15.0,-100.00,ENE,72,6.0,13.0,61,-99.99,,,-99.99,,2013-11-25 18:00:00,
2013-11-25 11:52:00,27.0,15.0,-100.00,ENE,72,6.0,13.0,61,-99.99,,,-99.99,,2013-11-25 18:52:00,
2013-11-25 12:00:00,29.0,12.0,-100.00,NE,46,9.0,17.0,49,-99.99,,,-99.99,,2013-11-25 19:00:00,
2013-11-25 12:52:00,29.0,12.0,-100.00,NE,46,9.0,17.0,49,-99.99,,,-99.99,,2013-11-25 19:52:00,
2013-11-25 13:00:00,29.0,15.0,-100.00,ENE,77,6.0,13.0,53,-99.99,,,-99.99,,2013-11-25 20:00:00,
2013-11-25 13:52:00,29.0,15.0,-100.00,ENE,77,6.0,13.0,53,-99.99,,,-99.99,,2013-11-25 20:52:00,
2013-11-25 14:00:00,30.0,17.0,-100.00,East,84,5.0,12.0,57,-99.99,,,-99.99,,2013-11-25 21:00:00,
2013-11-25 14:53:00,30.0,17.0,-100.00,East,84,5.0,12.0,57,-99.99,,,-99.99,,2013-11-25 21:53:00,
2013-11-25 15:00:00,31.0,16.0,-100.00,NE,43,4.0,12.0,53,-99.99,,,-99.99,,2013-11-25 22:00:00,
2013-11-25 15:53:00,31.0,16.0,-100.00,NE,43,4.0,12.0,53,-99.99,,,-99.99,,2013-11-25 22:53:00,
2013-11-25 16:00:00,31.0,14.0,-100.00,North,355,3.0,8.0,48,-99.99,,,-99.99,,2013-11-25 23:00:00,
2013-11-25 16:52:00,31.0,14.0,-100.00,North,355,3.0,8.0,48,-99.99,,,-99.99,,2013-11-25 23:52:00,
2013-11-25 17:00:00,27.0,14.0,-100.00,North,4,5.0,14.0,57,-99.99,,,-99.99,,2013-11-26 00:00:00,
2013-11-25 17:52:00,27.0,14.0,-100.00,North,4,5.0,14.0,57,-99.99,,,-99.99,,2013-11-26 00:52:00,
2013-11-25 18:00:00,23.0,16.0,-100.00,NE,43,4.0,10.0,75,-99.99,,,-99.99,,2013-11-26 01:00:00,
2013-11-25 18:52:00,23.0,16.0,-100.00,NE,43,4.0,10.0,75,-99.99,,,-99.99,,2013-11-26 01:52:00,
2013-11-25 19:00:00,20.0,16.0,-100.00,ENE,68,3.0,12.0,83,-99.99,,,-99.99,,2013-11-26 02:00:00,
2013-11-25 19:52:00,20.0,16.0,-100.00,ENE,68,3.0,12.0,83,-99.99,,,-99.99,,2013-11-26 02:52:00,
2013-11-25 20:00:00,17.0,15.0,-100.00,WSW,246,3.0,8.0,91,-99.99,,,-99.99,,2013-11-26 03:00:00,
2013-11-25 20:54:00,17.0,15.0,-100.00,WSW,246,3.0,8.0,91,-99.99,,,-99.99,,2013-11-26 03:54:00,
2013-11-25 21:00:00,17.0,14.0,-100.00,West,260,2.0,5.0,87,-99.99,,,-99.99,,2013-11-26 04:00:00,
2013-11-25 21:53:00,17.0,14.0,-100.00,West,260,2.0,5.0,87,-99.99,,,-99.99,,2013-11-26 04:53:00,
2013-11-25 22:00:00,17.0,13.0,-100.00,WSW,247,3.0,9.0,85,-99.99,,,-99.99,,2013-11-26 05:00:00,
2013-11-25 22:53:00,17.0,13.0,-100.00,WSW,247,3.0,9.0,85,-99.99,,,-99.99,,2013-11-26 05:53:00,
2013-11-25 23:00:00,19.0,13.0,-100.00,NW,323,2.0,6.0,76,-99.99,,,-99.99,,2013-11-26 06:00:00,
2013-11-25 23:52:00,19.0,13.0,-100.00,NW,323,2.0,6.0,76,-99.99,,,-99.99,,2013-11-26 06:52:00,